QPF
0.00 0.00 0.00 0.00 0.00 0.00 0.00 0.00 0.00 0.00 0.00 0.00 0.00 0.00 0.00 0.00 0.00 0.00 0.00 0.00 0.00 0.00 0.00 0.00 0.00 0.00 0.00 0.01 0.00 0.00 0.00 0.01 0.00 0.00 0.00 0.00 0.01 0.01 0.01 0.02 0.03 0.03 0.02 0.01 0.01 0.00 0.00 0.00 0.00
0.00 0.00 0.00 0.00 0.00 0.00 0.00 0.00 0.00 0.00 0.00 0.00 0.00 0.00 0.00 0.00 0.00 0.00 0.00 0.00 0.00 0.00 0.00 0.00 0.00 0.00 0.01 0.00 0.00 0.00 0.00 0.00 0.00 0.00 0.00 0.00 0.01 0.01 0.02 0.02 0.02 0.02 0.01 0.00 0.00 0.00 0.00 0.00 0.00
0.00 0.00 0.00 0.00 0.00 0.00 0.00 0.00 0.00 0.00 0.00 0.00 0.00 0.00 0.00 0.00 0.00 0.00 0.00 0.00 0.00 0.00 0.00 0.00 0.00 0.00 0.01 0.00 0.00 0.00 0.00 0.00 0.00 0.00 0.00 0.01 0.01 0.01 0.01 0.01 0.01 0.00 0.00 0.00 0.00 0.00 0.00 0.00 0.00
0.00 0.00 0.00 0.00 0.00 0.00 0.00 0.00 0.00 0.00 0.00 0.00 0.00 0.00 0.00 0.00 0.00 0.00 0.00 0.00 0.00 0.00 0.00 0.00 0.00 0.00 0.00 0.00 0.00 0.00 0.00 0.00 0.00 0.00 0.00 0.01 0.01 0.01 0.01 0.00 0.00 0.00 0.00 0.00 0.00 0.00 0.00 0.00 0.00
0.00 0.00 0.00 0.00 0.00 0.00 0.00 0.00 0.00 0.00 0.00 0.00 0.00 0.00 0.00 0.00 0.00 0.00 0.00 0.00 0.00 0.00 0.00 0.00 0.00 0.00 0.00 0.00 0.00 0.00 0.00 0.00 0.00 0.00 0.00 0.00 0.01 0.00 0.00 0.00 0.00 0.00 0.00 0.00 0.00 0.00 0.00 0.00 0.00
0.02 0.01 0.01 0.00 0.00 0.00 0.00 0.00 0.00 0.00 0.00 0.00 0.00 0.01 0.01 0.00 0.00 0.00 0.00 0.00 0.00 0.00 0.00 0.00 0.01 0.00 0.00 0.00 0.00 0.00 0.00 0.00 0.00 0.00 0.00 0.00 0.00 0.00 0.00 0.00 0.00 0.00 0.00 0.00 0.00 0.00 0.00 0.00 0.00
0.03 0.02 0.01 0.00 0.00 0.00 0.00 0.00 0.00 0.00 0.00 0.00 0.00 0.02 0.04 0.01 0.01 0.01 0.00 0.01 0.00 0.00 0.00 0.00 0.00 0.00 0.00 0.00 0.00 0.00 0.00 0.00 0.00 0.00 0.00 0.00 0.00 0.00 0.00 0.00 0.00 0.00 0.00 0.00 0.00 0.00 0.00 0.00 0.00
0.03 0.03 0.02 0.00 0.00 0.00 0.00 0.00 0.00 0.00 0.00 0.00 0.00 0.02 0.07 0.03 0.02 0.01 0.01 0.01 0.00 0.00 0.00 0.00 0.00 0.00 0.00 0.00 0.00 0.00 0.00 0.00 0.00 0.00 0.00 0.00 0.00 0.00 0.00 0.00 0.00 0.00 0.00 0.00 0.00 0.00 0.00 0.00 0.00
0.05 0.07 0.04 0.01 0.00 0.00 0.00 0.00 0.00 0.00 0.00 0.00 0.00 0.01 0.03 0.03 0.02 0.01 0.01 0.01 0.00 0.00 0.00 0.00 0.00 0.00 0.00 0.00 0.00 0.00 0.00 0.00 0.00 0.00 0.00 0.00 0.00 0.00 0.00 0.00 0.00 0.00 0.00 0.00 0.00 0.00 0.00 0.00 0.00
0.06 0.07 0.03 0.00 0.00 0.01 0.01 0.00 0.00 0.00 0.00 0.00 0.00 0.00 0.01 0.03 0.04 0.02 0.01 0.01 0.00 0.00 0.00 0.00 0.00 0.00 0.00 0.00 0.00 0.00 0.00 0.00 0.00 0.00 0.00 0.00 0.00 0.00 0.00 0.00 0.00 0.00 0.00 0.00 0.00 0.00 0.00 0.00 0.00
0.04 0.03 0.01 0.01 0.01 0.02 0.02 0.01 0.00 0.00 0.00 0.00 0.00 0.00 0.01 0.02 0.06 0.05 0.03 0.01 0.00 0.00 0.00 0.00 0.00 0.00 0.00 0.00 0.00 0.00 0.00 0.00 0.00 0.00 0.00 0.00 0.00 0.00 0.00 0.00 0.00 0.00 0.00 0.00 0.00 0.00 0.00 0.00 0.00
0.02 0.01 0.00 0.01 0.02 0.03 0.04 0.03 0.01 0.00 0.00 0.00 0.00 0.00 0.00 0.01 0.03 0.03 0.03 0.02 0.01 0.00 0.00 0.00 0.00 0.00 0.00 0.00 0.00 0.00 0.00 0.00 0.00 0.00 0.00 0.00 0.00 0.00 0.00 0.00 0.00 0.00 0.00 0.00 0.00 0.00 0.00 0.00 0.00
0.01 0.01 0.01 0.01 0.02 0.03 0.04 0.05 0.02 0.00 0.00 0.00 0.00 0.00 0.00 0.01 0.01 0.01 0.01 0.01 0.01 0.00 0.00 0.00 0.00 0.00 0.00 0.00 0.00 0.00 0.00 0.00 0.00 0.00 0.00 0.00 0.00 0.00 0.00 0.00 0.00 0.00 0.00 0.00 0.00 0.00 0.00 0.00 0.00
0.00 0.00 0.01 0.02 0.02 0.02 0.03 0.04 0.03 0.01 0.00 0.00 0.00 0.00 0.00 0.00 0.00 0.00 0.01 0.01 0.01 0.00 0.00 0.00 0.00 0.00 0.00 0.00 0.00 0.00 0.00 0.00 0.00 0.00 0.00 0.00 0.00 0.00 0.00 0.00 0.00 0.00 0.00 0.00 0.00 0.00 0.00 0.00 0.00
0.01 0.01 0.01 0.02 0.02 0.02 0.02 0.04 0.02 0.01 0.00 0.00 0.00 0.00 0.00 0.00 0.00 0.00 0.00 0.01 0.01 0.01 0.00 0.00 0.01 0.00 0.00 0.00 0.00 0.00 0.00 0.00 0.00 0.00 0.00 0.00 0.00 0.00 0.00 0.00 0.00 0.00 0.00 0.00 0.00 0.00 0.00 0.00 0.00
0.02 0.02 0.02 0.02 0.01 0.01 0.02 0.02 0.01 0.00 0.00 0.00 0.00 0.00 0.00 0.00 0.00 0.00 0.00 0.00 0.00 0.00 0.00 0.01 0.01 0.00 0.00 0.00 0.00 0.00 0.00 0.00 0.00 0.00 0.00 0.00 0.00 0.00 0.00 0.00 0.00 0.00 0.00 0.00 0.00 0.00 0.00 0.00 0.00
0.04 0.02 0.01 0.01 0.01 0.01 0.01 0.01 0.00 0.00 0.00 0.00 0.00 0.00 0.00 0.00 0.00 0.00 0.00 0.00 0.00 0.00 0.00 0.00 0.01 0.01 0.00 0.01 0.01 0.01 0.01 0.01 0.01 0.01 0.01 0.01 0.01 0.01 0.01 0.00 0.00 0.00 0.00 0.00 0.00 0.00 0.00 0.00 0.00
0.01 0.00 0.00 0.00 0.01 0.01 0.00 0.00 0.00 0.00 0.00 0.00 0.00 0.00 0.00 0.00 0.00 0.00 0.00 0.00 0.00 0.00 0.00 0.00 0.00 0.00 0.01 0.01 0.01 0.02 0.02 0.02 0.02 0.02 0.02 0.03 0.03 0.02 0.02 0.01 0.01 0.02 0.01 0.01 0.01 0.01 0.01 0.00 0.01
0.00 0.00 0.00 0.00 0.00 0.00 0.00 0.00 0.00 0.00 0.00 0.00 0.00 0.00 0.00 0.00 0.00 0.00 0.00 0.00 0.00 0.00 0.00 0.00 0.00 0.00 0.01 0.01 0.02 0.03 0.03 0.03 0.03 0.03 0.03 0.03 0.04 0.04 0.04 0.03 0.03 0.03 0.03 0.02 0.02 0.03 0.03 0.02 0.03
0.01 0.01 0.00 0.00 0.00 0.00 0.00 0.00 0.00 0.00 0.00 0.00 0.00 0.00 0.00 0.00 0.00 0.00 0.00 0.00 0.00 0.00 0.00 0.00 0.00 0.00 0.00 0.01 0.01 0.01 0.02 0.02 0.02 0.03 0.02 0.02 0.03 0.05 0.05 0.05 0.05 0.06 0.05 0.05 0.05 0.05 0.04 0.05 0.06
0.01 0.00 0.00 0.00 0.00 0.00 0.00 0.00 0.00 0.00 0.00 0.00 0.00 0.00 0.00 0.00 0.00 0.00 0.00 0.00 0.00 0.00 0.00 0.00 0.00 0.00 0.00 0.00 0.00 0.00 0.01 0.01 0.01 0.01 0.02 0.03 0.03 0.04 0.04 0.04 0.05 0.06 0.07 0.06 0.07 0.07 0.07 0.07 0.08
0.01 0.00 0.00 0.00 0.00 0.00 0.00 0.00 0.00 0.00 0.00 0.00 0.00 0.00 0.00 0.00 0.00 0.00 0.00 0.00 0.00 0.00 0.00 0.00 0.00 0.00 0.00 0.00 0.00 0.00 0.00 0.00 0.00 0.01 0.01 0.02 0.02 0.02 0.02 0.02 0.03 0.04 0.05 0.06 0.08 0.09 0.10 0.11 0.10
0.01 0.01 0.00 0.00 0.00 0.00 0.00 0.00 0.00 0.00 0.00 0.00 0.00 0.00 0.00 0.00 0.00 0.00 0.00 0.00 0.00 0.00 0.00 0.00 0.00 0.00 0.00 0.00 0.00 0.00 0.00 0.00 0.00 0.00 0.00 0.00 0.01 0.01 0.01 0.01 0.02 0.03 0.04 0.05 0.07 0.10 0.11 0.12 0.11
0.01 0.02 0.02 0.01 0.00 0.00 0.00 0.00 0.00 0.00 0.00 0.00 0.00 0.00 0.00 0.00 0.00 0.00 0.00 0.00 0.00 0.00 0.00 0.00 0.00 0.00 0.00 0.00 0.00 0.00 0.00 0.00 0.00 0.00 0.00 0.00 0.00 0.00 0.01 0.01 0.02 0.03 0.03 0.04 0.06 0.09 0.11 0.12 0.12
0.01 0.02 0.05 0.05 0.03 0.00 0.00 0.00 0.00 0.00 0.00 0.00 0.00 0.00 0.00 0.00 0.00 0.00 0.00 0.00 0.00 0.00 0.00 0.00 0.00 0.00 0.00 0.00 0.00 0.00 0.00 0.00 0.00 0.00 0.00 0.00 0.00 0.00 0.00 0.01 0.01 0.02 0.03 0.04 0.06 0.07 0.09 0.12 0.13
0.01 0.01 0.02 0.02 0.01 0.00 0.00 0.00 0.00 0.00 0.00 0.00 0.00 0.00 0.00 0.00 0.00 0.00 0.00 0.00 0.00 0.00 0.00 0.00 0.00 0.00 0.00 0.00 0.00 0.00 0.00 0.00 0.00 0.00 0.00 0.00 0.00 0.00 0.00 0.00 0.00 0.01 0.02 0.03 0.05 0.06 0.08 0.10 0.12
0.03 0.01 0.01 0.00 0.00 0.00 0.00 0.00 0.00 0.00 0.00 0.00 0.00 0.00 0.00 0.00 0.00 0.00 0.00 0.00 0.00 0.00 0.00 0.00 0.00 0.00 0.00 0.00 0.00 0.00 0.00 0.00 0.00 0.00 0.00 0.00 0.00 0.00 0.00 0.00 0.00 0.01 0.01 0.02 0.03 0.04 0.06 0.07 0.09
0.03 0.02 0.01 0.01 0.01 0.01 0.00 0.00 0.00 0.00 0.00 0.00 0.00 0.00 0.00 0.00 0.00 0.00 0.00 0.00 0.00 0.00 0.00 0.00 0.00 0.00 0.00 0.00 0.00 0.00 0.00 0.00 0.00 0.00 0.00 0.00 0.00 0.00 0.00 0.00 0.00 0.00 0.01 0.01 0.02 0.03 0.04 0.06 0.07
0.02 0.03 0.01 0.01 0.00 0.00 0.00 0.00 0.00 0.00 0.00 0.00 0.00 0.00 0.00 0.00 0.00 0.00 0.00 0.00 0.00 0.00 0.00 0.00 0.00 0.00 0.00 0.00 0.00 0.00 0.00 0.00 0.00 0.00 0.00 0.00 0.00 0.00 0.00 0.00 0.00 0.00 0.00 0.01 0.01 0.02 0.03 0.04 0.04
0.01 0.01 0.01 0.01 0.01 0.00 0.00 0.00 0.00 0.00 0.00 0.00 0.00 0.00 0.00 0.00 0.00 0.00 0.00 0.00 0.00 0.00 0.00 0.00 0.00 0.00 0.00 0.00 0.00 0.00 0.00 0.00 0.00 0.00 0.00 0.00 0.00 0.00 0.00 0.00 0.00 0.00 0.00 0.00 0.01 0.01 0.01 0.02 0.03
MSLP
1015.54 1016.32 1017.29 1018.26 1019.06 1019.54 1019.61 1019.27 1018.59 1017.71 1016.83 1016.08 1015.58 1015.34 1015.35 1015.49 1015.66 1015.76 1015.74 1015.60 1015.39 1015.20 1015.11 1015.18 1015.45 1015.86 1016.36 1016.85 1017.27 1017.56 1017.72 1017.78 1017.79 1017.82 1017.91 1018.07 1018.30 1018.55 1018.79 1018.99 1019.12 1019.20 1019.26 1019.31 1019.38 1019.50 1019.64 1019.79 1019.91
1015.91 1016.82 1017.83 1018.77 1019.45 1019.75 1019.58 1018.99 1018.09 1017.03 1016.03 1015.23 1014.74 1014.57 1014.66 1014.89 1015.15 1015.33 1015.36 1015.26 1015.10 1014.95 1014.91 1015.04 1015.37 1015.85 1016.40 1016.94 1017.40 1017.72 1017.91 1018.00 1018.03 1018.08 1018.18 1018.36 1018.58 1018.83 1019.06 1019.23 1019.35 1019.41 1019.45 1019.49 1019.57 1019.69 1019.83 1019.97 1020.09
1016.34 1017.30 1018.31 1019.17 1019.71 1019.81 1019.42 1018.62 1017.53 1016.34 1015.27 1014.46 1014.00 1013.90 1014.07 1014.40 1014.75 1015.00 1015.10 1015.05 1014.93 1014.82 1014.82 1015.00 1015.36 1015.87 1016.46 1017.02 1017.50 1017.85 1018.06 1018.17 1018.24 1018.31 1018.43 1018.61 1018.83 1019.07 1019.28 1019.43 1019.52 1019.56 1019.58 1019.61 1019.67 1019.78 1019.92 1020.05 1020.16
1016.76 1017.74 1018.69 1019.44 1019.83 1019.75 1019.19 1018.23 1017.02 1015.76 1014.66 1013.87 1013.47 1013.44 1013.70 1014.10 1014.53 1014.84 1015.00 1015.01 1014.93 1014.86 1014.90 1015.09 1015.47 1015.98 1016.56 1017.12 1017.59 1017.94 1018.17 1018.29 1018.38 1018.47 1018.62 1018.81 1019.04 1019.27 1019.47 1019.60 1019.67 1019.70 1019.70 1019.71 1019.76 1019.85 1019.97 1020.10 1020.21
1017.13 1018.07 1018.94 1019.57 1019.82 1019.61 1018.94 1017.90 1016.65 1015.39 1014.32 1013.58 1013.23 1013.26 1013.58 1014.04 1014.51 1014.88 1015.09 1015.15 1015.12 1015.09 1015.14 1015.34 1015.70 1016.18 1016.72 1017.24 1017.69 1018.01 1018.23 1018.36 1018.46 1018.59 1018.75 1018.97 1019.21 1019.45 1019.65 1019.78 1019.84 1019.85 1019.84 1019.84 1019.88 1019.95 1020.06 1020.18 1020.28
1017.39 1018.26 1019.03 1019.56 1019.72 1019.45 1018.75 1017.72 1016.51 1015.31 1014.31 1013.63 1013.33 1013.39 1013.72 1014.20 1014.70 1015.09 1015.34 1015.44 1015.45 1015.46 1015.53 1015.73 1016.05 1016.48 1016.95 1017.41 1017.79 1018.08 1018.28 1018.41 1018.53 1018.67 1018.86 1019.10 1019.37 1019.62 1019.84 1019.98 1020.05 1020.06 1020.06 1020.05 1020.08 1020.14 1020.23 1020.33 1020.42
1017.51 1018.29 1018.97 1019.42 1019.54 1019.28 1018.64 1017.70 1016.60 1015.52 1014.61 1013.99 1013.72 1013.78 1014.09 1014.53 1015.00 1015.39 1015.66 1015.79 1015.85 1015.90 1015.99 1016.17 1016.46 1016.83 1017.23 1017.61 1017.92 1018.17 1018.34 1018.47 1018.60 1018.77 1018.99 1019.26 1019.54 1019.82 1020.05 1020.21 1020.29 1020.33 1020.33 1020.33 1020.35 1020.41 1020.48 1020.56 1020.63
1017.49 1018.17 1018.78 1019.19 1019.33 1019.14 1018.62 1017.84 1016.91 1015.97 1015.16 1014.59 1014.32 1014.33 1014.56 1014.93 1015.34 1015.69 1015.95 1016.12 1016.22 1016.30 1016.42 1016.60 1016.85 1017.16 1017.50 1017.81 1018.07 1018.27 1018.43 1018.56 1018.71 1018.90 1019.15 1019.43 1019.74 1020.02 1020.27 1020.44 1020.55 1020.60 1020.62 1020.63 1020.66 1020.70 1020.77 1020.83 1020.88
1017.35 1017.95 1018.50 1018.92 1019.11 1019.04 1018.69 1018.09 1017.35 1016.56 1015.85 1015.31 1015.00 1014.92 1015.04 1015.29 1015.61 1015.91 1016.15 1016.34 1016.47 1016.60 1016.74 1016.92 1017.16 1017.43 1017.71 1017.97 1018.19 1018.37 1018.53 1018.68 1018.85 1019.06 1019.32 1019.62 1019.93 1020.21 1020.46 1020.64 1020.75 1020.82 1020.86 1020.89 1020.92 1020.97 1021.02 1021.07 1021.11
1017.14 1017.68 1018.20 1018.63 1018.91 1018.97 1018.79 1018.40 1017.83 1017.18 1016.54 1016.01 1015.63 1015.45 1015.43 1015.55 1015.75 1015.98 1016.21 1016.40 1016.57 1016.73 1016.90 1017.10 1017.32 1017.57 1017.82 1018.05 1018.25 1018.44 1018.61 1018.78 1018.98 1019.21 1019.48 1019.77 1020.07 1020.34 1020.57 1020.74 1020.86 1020.93 1020.98 1021.03 1021.08 1021.13 1021.19 1021.23 1021.25
1016.94 1017.42 1017.92 1018.38 1018.73 1018.92 1018.90 1018.68 1018.26 1017.73 1017.14 1016.59 1016.14 1015.83 1015.68 1015.66 1015.76 1015.92 1016.12 1016.32 1016.51 1016.70 1016.90 1017.11 1017.33 1017.56 1017.79 1018.01 1018.22 1018.42 1018.61 1018.82 1019.04 1019.29 1019.56 1019.84 1020.11 1020.35 1020.54 1020.70 1020.80 1020.88 1020.95 1021.01 1021.07 1021.14 1021.21 1021.25 1021.27
1016.77 1017.21 1017.69 1018.16 1018.57 1018.85 1018.96 1018.86 1018.57 1018.11 1017.55 1016.98 1016.46 1016.04 1015.77 1015.65 1015.65 1015.76 1015.93 1016.13 1016.34 1016.55 1016.76 1016.97 1017.18 1017.40 1017.61 1017.83 1018.05 1018.27 1018.50 1018.74 1018.99 1019.25 1019.51 1019.76 1020.00 1020.20 1020.36 1020.49 1020.58 1020.66 1020.74 1020.82 1020.90 1020.99 1021.08 1021.14 1021.17
1016.67 1017.07 1017.51 1017.98 1018.41 1018.75 1018.93 1018.91 1018.69 1018.28 1017.74 1017.15 1016.58 1016.09 1015.74 1015.54 1015.49 1015.56 1015.72 1015.92 1016.13 1016.34 1016.55 1016.74 1016.93 1017.12 1017.32 1017.53 1017.76 1018.00 1018.26 1018.52 1018.78 1019.04 1019.29 1019.52 1019.71 1019.88 1020.01 1020.12 1020.21 1020.30 1020.39 1020.49 1020.60 1020.72 1020.83 1020.91 1020.97
1016.64 1016.99 1017.38 1017.82 1018.23 1018.58 1018.78 1018.80 1018.62 1018.24 1017.71 1017.12 1016.53 1016.02 1015.65 1015.42 1015.35 1015.41 1015.56 1015.75 1015.96 1016.15 1016.32 1016.48 1016.63 1016.78 1016.96 1017.16 1017.38 1017.63 1017.89 1018.16 1018.43 1018.68 1018.90 1019.10 1019.27 1019.41 1019.52 1019.62 1019.72 1019.83 1019.94 1020.07 1020.22 1020.37 1020.51 1020.63 1020.72
1016.64 1016.93 1017.27 1017.65 1018.02 1018.34 1018.53 1018.56 1018.38 1018.02 1017.52 1016.95 1016.39 1015.90 1015.55 1015.34 1015.29 1015.36 1015.51 1015.69 1015.87 1016.02 1016.15 1016.25 1016.35 1016.46 1016.59 1016.77 1016.98 1017.22 1017.47 1017.73 1017.98 1018.20 1018.40 1018.57 1018.71 1018.84 1018.95 1019.07 1019.19 1019.32 1019.47 1019.64 1019.82 1020.00 1020.17 1020.33 1020.45
1016.63 1016.87 1017.15 1017.47 1017.79 1018.06 1018.22 1018.22 1018.05 1017.71 1017.24 1016.72 1016.22 1015.79 1015.49 1015.34 1015.33 1015.42 1015.58 1015.74 1015.89 1015.99 1016.06 1016.10 1016.14 1016.20 1016.29 1016.43 1016.62 1016.83 1017.06 1017.29 1017.50 1017.69 1017.85 1017.98 1018.11 1018.23 1018.35 1018.49 1018.65 1018.82 1019.01 1019.21 1019.42 1019.64 1019.84 1020.03 1020.19
1016.58 1016.78 1017.02 1017.28 1017.55 1017.77 1017.89 1017.87 1017.69 1017.37 1016.95 1016.49 1016.06 1015.72 1015.51 1015.43 1015.47 1015.59 1015.75 1015.90 1016.00 1016.05 1016.06 1016.05 1016.03 1016.05 1016.11 1016.22 1016.37 1016.55 1016.74 1016.92 1017.08 1017.21 1017.32 1017.42 1017.52 1017.63 1017.77 1017.94 1018.13 1018.34 1018.57 1018.80 1019.04 1019.28 1019.51 1019.72 1019.91
1016.50 1016.68 1016.90 1017.14 1017.37 1017.55 1017.63 1017.58 1017.39 1017.08 1016.70 1016.30 1015.95 1015.71 1015.58 1015.58 1015.68 1015.83 1015.98 1016.11 1016.17 1016.18 1016.14 1016.07 1016.02 1016.02 1016.06 1016.15 1016.28 1016.43 1016.58 1016.70 1016.78 1016.84 1016.89 1016.93 1016.99 1017.09 1017.23 1017.41 1017.63 1017.87 1018.12 1018.38 1018.63 1018.88 1019.12 1019.35 1019.57
1016.40 1016.60 1016.83 1017.07 1017.29 1017.44 1017.48 1017.40 1017.19 1016.88 1016.52 1016.18 1015.90 1015.74 1015.69 1015.75 1015.90 1016.07 1016.22 1016.33 1016.36 1016.33 1016.25 1016.17 1016.10 1016.09 1016.14 1016.23 1016.35 1016.47 1016.57 1016.63 1016.64 1016.62 1016.58 1016.56 1016.57 1016.63 1016.75 1016.92 1017.14 1017.39 1017.65 1017.90 1018.15 1018.39 1018.63 1018.87 1019.11
1016.34 1016.59 1016.86 1017.13 1017.35 1017.48 1017.49 1017.37 1017.12 1016.79 1016.43 1016.12 1015.89 1015.78 1015.79 1015.91 1016.09 1016.28 1016.43 1016.52 1016.53 1016.47 1016.38 1016.30 1016.24 1016.25 1016.31 1016.42 1016.54 1016.65 1016.72 1016.72 1016.65 1016.54 1016.42 1016.31 1016.24 1016.24 1016.32 1016.46 1016.65 1016.87 1017.11 1017.34 1017.56 1017.78 1018.01 1018.24 1018.49
1016.37 1016.70 1017.04 1017.35 1017.58 1017.69 1017.66 1017.47 1017.16 1016.78 1016.40 1016.08 1015.87 1015.79 1015.85 1016.00 1016.22 1016.43 1016.59 1016.67 1016.67 1016.61 1016.52 1016.44 1016.41 1016.45 1016.54 1016.68 1016.82 1016.92 1016.96 1016.91 1016.78 1016.59 1016.38 1016.18 1016.02 1015.95 1015.95 1016.03 1016.16 1016.33 1016.51 1016.69 1016.87 1017.05 1017.25 1017.46 1017.71
1016.51 1016.94 1017.36 1017.71 1017.95 1018.03 1017.93 1017.66 1017.27 1016.81 1016.37 1016.02 1015.80 1015.74 1015.83 1016.02 1016.27 1016.51 1016.69 1016.78 1016.79 1016.74 1016.67 1016.61 1016.60 1016.67 1016.79 1016.95 1017.10 1017.21 1017.23 1017.15 1016.97 1016.72 1016.43 1016.15 1015.91 1015.75 1015.66 1015.66 1015.71 1015.79 1015.90 1016.01 1016.13 1016.26 1016.41 1016.60 1016.82
1016.75 1017.28 1017.77 1018.16 1018.39 1018.42 1018.24 1017.87 1017.37 1016.82 1016.30 1015.90 1015.66 1015.61 1015.73 1015.96 1016.26 1016.54 1016.76 1016.89 1016.93 1016.90 1016.84 1016.80 1016.81 1016.89 1017.02 1017.20 1017.36 1017.47 1017.49 1017.39 1017.19 1016.90 1016.56 1016.22 1015.91 1015.67 1015.49 1015.39 1015.35 1015.34 1015.36 1015.39 1015.43 1015.50 1015.59 1015.74 1015.95
1017.05 1017.66 1018.20 1018.61 1018.81 1018.77 1018.50 1018.01 1017.39 1016.73 1016.14 1015.68 1015.43 1015.39 1015.55 1015.84 1016.20 1016.55 1016.84 1017.02 1017.10 1017.10 1017.06 1017.02 1017.04 1017.11 1017.24 1017.41 1017.57 1017.67 1017.70 1017.61 1017.40 1017.11 1016.76 1016.39 1016.04 1015.73 1015.48 1015.30 1015.16 1015.06 1014.98 1014.93 1014.89 1014.89 1014.93 1015.03 1015.20
1017.34 1017.99 1018.56 1018.95 1019.11 1019.00 1018.62 1018.02 1017.29 1016.54 1015.87 1015.38 1015.12 1015.11 1015.32 1015.68 1016.12 1016.56 1016.93 1017.19 1017.32 1017.36 1017.34 1017.31 1017.30 1017.35 1017.46 1017.60 1017.74 1017.84 1017.86 1017.79 1017.62 1017.35 1017.02 1016.65 1016.29 1015.95 1015.66 1015.40 1015.19 1015.01 1014.85 1014.71 1014.60 1014.54 1014.52 1014.56 1014.68
1017.53 1018.20 1018.76 1019.12 1019.22 1019.03 1018.56 1017.87 1017.06 1016.24 1015.53 1015.02 1014.77 1014.80 1015.06 1015.51 1016.05 1016.58 1017.05 1017.39 1017.60 1017.68 1017.69 1017.65 1017.63 1017.64 1017.70 1017.79 1017.90 1017.99 1018.02 1017.98 1017.84 1017.62 1017.34 1017.02 1016.68 1016.34 1016.03 1015.74 1015.47 1015.22 1014.99 1014.79 1014.62 1014.50 1014.42 1014.42 1014.48
1017.57 1018.22 1018.75 1019.06 1019.10 1018.85 1018.31 1017.57 1016.71 1015.86 1015.13 1014.63 1014.42 1014.49 1014.82 1015.35 1015.98 1016.62 1017.18 1017.61 1017.90 1018.04 1018.07 1018.04 1018.00 1017.97 1017.98 1018.03 1018.10 1018.16 1018.20 1018.18 1018.10 1017.94 1017.73 1017.47 1017.18 1016.87 1016.56 1016.26 1015.96 1015.68 1015.41 1015.16 1014.95 1014.78 1014.66 1014.60 1014.61
1017.43 1018.04 1018.51 1018.78 1018.77 1018.47 1017.90 1017.14 1016.28 1015.44 1014.74 1014.28 1014.10 1014.23 1014.62 1015.22 1015.92 1016.64 1017.29 1017.81 1018.18 1018.39 1018.47 1018.46 1018.41 1018.35 1018.32 1018.32 1018.35 1018.40 1018.43 1018.44 1018.40 1018.31 1018.17 1017.98 1017.75 1017.49 1017.21 1016.91 1016.61 1016.31 1016.02 1015.76 1015.52 1015.32 1015.18 1015.09 1015.05
1017.15 1017.69 1018.10 1018.30 1018.25 1017.93 1017.37 1016.64 1015.82 1015.04 1014.40 1013.99 1013.87 1014.04 1014.47 1015.11 1015.86 1016.64 1017.36 1017.95 1018.40 1018.68 1018.82 1018.85 1018.82 1018.76 1018.71 1018.68 1018.68 1018.71 1018.74 1018.76 1018.76 1018.72 1018.64 1018.51 1018.34 1018.13 1017.89 1017.62 1017.34 1017.04 1016.76 1016.49 1016.25 1016.05 1015.90 1015.78 1015.72
1016.79 1017.24 1017.57 1017.71 1017.62 1017.30 1016.78 1016.10 1015.37 1014.68 1014.12 1013.79 1013.72 1013.93 1014.38 1015.03 1015.80 1016.60 1017.36 1018.01 1018.52 1018.87 1019.09 1019.18 1019.19 1019.16 1019.12 1019.08 1019.07 1019.07 1019.10 1019.12 1019.14 1019.13 1019.09 1019.02 1018.90 1018.73 1018.53 1018.30 1018.04 1017.78 1017.51 1017.27 1017.05 1016.86 1016.72 1016.60 1016.52
Thickness
5678 5685 5690 5685 5669 5657 5665 5685 5704 5718 5729 5743 5749 5747 5742 5740 5742 5741 5759 5767 5766 5763 5760 5758 5757 5754 5752 5751 5749 5747 5745 5744 5742 5741 5740 5739 5738 5737 5736 5734 5732 5730 5728 5726 5724 5723 5721 5720 5719
5671 5678 5675 5665 5651 5647 5663 5686 5701 5717 5733 5744 5746 5744 5740 5742 5753 5755 5758 5763 5764 5760 5757 5755 5754 5752 5750 5748 5747 5745 5743 5741 5740 5739 5738 5737 5736 5734 5732 5730 5728 5726 5724 5722 5720 5718 5717 5715 5714
5664 5668 5658 5648 5644 5650 5669 5691 5702 5721 5734 5741 5738 5739 5738 5742 5753 5755 5758 5760 5759 5756 5753 5752 5751 5749 5747 5746 5744 5742 5741 5739 5738 5736 5735 5734 5733 5731 5729 5726 5724 5722 5719 5717 5716 5714 5713 5711 5710
5653 5650 5644 5637 5646 5663 5676 5690 5701 5713 5729 5738 5733 5726 5736 5750 5756 5757 5757 5757 5754 5751 5750 5749 5748 5746 5745 5743 5742 5740 5738 5736 5735 5733 5732 5731 5729 5727 5725 5722 5719 5717 5715 5713 5711 5710 5709 5707 5706
5642 5634 5627 5628 5646 5665 5677 5689 5699 5707 5720 5729 5727 5719 5726 5745 5756 5756 5753 5751 5749 5747 5746 5745 5744 5743 5742 5741 5739 5737 5735 5733 5732 5730 5729 5727 5725 5723 5720 5718 5715 5713 5711 5709 5708 5706 5705 5703 5702
5624 5622 5613 5621 5643 5662 5673 5686 5694 5703 5714 5722 5720 5714 5720 5738 5745 5748 5749 5746 5746 5744 5742 5741 5741 5740 5739 5738 5736 5734 5732 5731 5729 5727 5725 5723 5721 5718 5716 5714 5711 5709 5707 5706 5704 5702 5701 5699 5698
5615 5613 5614 5626 5639 5651 5667 5681 5688 5697 5707 5715 5718 5709 5716 5729 5739 5744 5743 5741 5740 5740 5739 5738 5737 5736 5735 5734 5733 5731 5729 5728 5726 5724 5721 5719 5717 5714 5712 5710 5707 5705 5703 5702 5700 5698 5697 5696 5694
5618 5613 5612 5621 5631 5644 5661 5673 5684 5693 5702 5715 5718 5708 5709 5724 5735 5739 5736 5734 5734 5735 5735 5735 5734 5733 5732 5731 5729 5728 5726 5724 5722 5720 5718 5715 5712 5710 5707 5705 5703 5701 5699 5697 5696 5694 5693 5692 5690
5612 5600 5604 5619 5630 5643 5655 5661 5674 5690 5698 5705 5710 5715 5720 5725 5729 5728 5726 5725 5726 5728 5730 5731 5730 5729 5728 5727 5725 5724 5722 5720 5718 5716 5714 5711 5708 5706 5703 5701 5699 5697 5695 5693 5691 5690 5689 5687 5686
5598 5596 5616 5635 5640 5643 5648 5652 5660 5672 5681 5688 5697 5708 5715 5718 5719 5719 5717 5717 5718 5721 5724 5726 5726 5725 5724 5723 5721 5720 5718 5716 5714 5712 5710 5707 5705 5702 5699 5697 5695 5693 5691 5689 5687 5685 5684 5682 5681
5594 5604 5622 5630 5634 5636 5638 5643 5653 5657 5667 5680 5688 5697 5705 5708 5710 5712 5712 5714 5716 5718 5720 5722 5722 5721 5720 5719 5718 5716 5714 5712 5710 5708 5706 5704 5701 5698 5696 5694 5691 5689 5687 5685 5683 5681 5679 5678 5676
5591 5605 5615 5621 5624 5625 5627 5633 5641 5651 5665 5682 5690 5696 5698 5700 5703 5706 5708 5710 5713 5714 5717 5719 5719 5718 5717 5717 5715 5713 5711 5709 5707 5705 5703 5700 5698 5695 5693 5691 5689 5687 5685 5682 5680 5678 5676 5674 5672
5587 5599 5609 5614 5614 5617 5620 5624 5630 5645 5663 5675 5682 5687 5690 5694 5697 5702 5707 5709 5710 5711 5714 5716 5716 5715 5714 5713 5712 5710 5709 5707 5705 5703 5700 5698 5696 5693 5690 5688 5686 5684 5682 5680 5677 5675 5673 5670 5668
5585 5594 5599 5602 5606 5611 5613 5617 5621 5639 5655 5665 5672 5676 5682 5687 5692 5696 5700 5703 5706 5709 5711 5713 5714 5714 5713 5711 5709 5709 5707 5706 5704 5701 5699 5697 5695 5693 5690 5687 5685 5682 5680 5678 5675 5673 5670 5668 5666
5581 5580 5584 5592 5600 5606 5608 5604 5616 5636 5645 5653 5662 5670 5677 5682 5687 5691 5695 5699 5703 5705 5708 5710 5711 5711 5710 5709 5708 5707 5705 5704 5702 5700 5698 5696 5694 5692 5690 5687 5684 5682 5679 5676 5673 5670 5667 5664 5662
5567 5566 5568 5586 5598 5604 5601 5600 5621 5633 5638 5644 5653 5662 5669 5676 5681 5686 5691 5695 5699 5701 5702 5705 5707 5707 5707 5706 5705 5704 5703 5702 5701 5699 5697 5695 5693 5691 5689 5686 5684 5681 5677 5674 5670 5667 5663 5660 5658
5553 5553 5564 5582 5596 5602 5600 5604 5620 5630 5633 5638 5646 5653 5661 5667 5673 5678 5684 5689 5693 5696 5697 5698 5700 5701 5702 5702 5701 5701 5700 5700 5699 5697 5696 5694 5692 5689 5687 5685 5682 5678 5674 5671 5668 5664 5660 5656 5653
5556 5560 5568 5577 5592 5597 5598 5603 5615 5624 5629 5634 5640 5647 5653 5660 5666 5672 5677 5681 5685 5688 5690 5691 5692 5693 5694 5695 5695 5695 5695 5695 5695 5694 5693 5691 5689 5687 5684 5682 5679 5674 5671 5667 5663 5660 5656 5653 5649
5561 5561 5566 5576 5590 5592 5593 5598 5607 5618 5624 5628 5634 5641 5647 5653 5659 5665 5669 5673 5676 5678 5680 5682 5683 5684 5686 5686 5686 5686 5686 5688 5689 5689 5688 5687 5685 5683 5680 5678 5675 5671 5667 5664 5660 5655 5651 5646 5642
5559 5557 5561 5572 5583 5585 5584 5590 5601 5610 5618 5625 5631 5636 5642 5646 5651 5655 5659 5662 5665 5667 5670 5672 5674 5676 5678 5679 5680 5680 5681 5682 5683 5683 5682 5681 5679 5677 5675 5673 5670 5666 5662 5659 5655 5651 5646 5641 5634
5554 5556 5558 5565 5573 5578 5578 5579 5591 5605 5614 5621 5627 5633 5637 5641 5643 5645 5649 5652 5654 5657 5659 5663 5664 5667 5669 5672 5673 5673 5673 5674 5674 5675 5674 5674 5673 5671 5669 5667 5665 5661 5658 5654 5651 5646 5640 5635 5629
5550 5560 5562 5562 5558 5557 5568 5561 5583 5596 5604 5614 5620 5624 5629 5633 5636 5638 5641 5643 5646 5647 5650 5654 5656 5658 5660 5663 5664 5664 5663 5663 5665 5665 5666 5666 5666 5665 5664 5662 5659 5656 5653 5649 5646 5642 5636 5630 5623
5552 5562 5560 5557 5553 5551 5558 5556 5574 5589 5595 5610 5615 5617 5620 5624 5628 5631 5634 5636 5637 5639 5641 5644 5647 5649 5651 5653 5654 5654 5654 5654 5655 5656 5657 5657 5658 5658 5657 5655 5653 5650 5647 5644 5641 5636 5631 5625 5620
5552 5550 5547 5544 5543 5540 5549 5548 5564 5582 5599 5609 5611 5611 5613 5616 5620 5622 5625 5626 5628 5629 5632 5634 5637 5638 5640 5642 5643 5644 5644 5644 5645 5646 5646 5647 5648 5648 5648 5647 5645 5643 5641 5638 5634 5630 5625 5620 5615
5546 5538 5528 5529 5529 5533 5546 5547 5570 5592 5601 5606 5608 5606 5606 5609 5610 5612 5614 5616 5618 5619 5621 5623 5626 5627 5629 5630 5632 5633 5634 5634 5635 5635 5636 5636 5636 5636 5636 5636 5636 5634 5632 5630 5627 5623 5619 5614 5608
5539 5539 5528 5526 5524 5527 5541 5545 5573 5589 5598 5603 5603 5601 5600 5601 5601 5603 5605 5606 5607 5609 5611 5613 5614 5615 5617 5619 5621 5622 5623 5624 5625 5625 5625 5625 5625 5625 5625 5625 5625 5624 5623 5621 5618 5615 5610 5605 5600
5535 5534 5537 5528 5526 5526 5533 5550 5567 5583 5588 5591 5592 5593 5593 5593 5594 5594 5595 5595 5596 5598 5599 5601 5603 5604 5606 5608 5610 5611 5612 5613 5613 5613 5613 5613 5613 5614 5614 5614 5613 5612 5611 5610 5608 5604 5600 5595 5590
5535 5534 5527 5522 5521 5524 5537 5546 5557 5571 5575 5580 5584 5585 5585 5585 5584 5584 5584 5584 5585 5586 5588 5589 5592 5593 5594 5596 5598 5599 5599 5600 5600 5601 5601 5601 5601 5601 5601 5601 5600 5600 5598 5597 5595 5592 5588 5583 5577
5528 5530 5529 5522 5520 5522 5529 5545 5566 5570 5574 5576 5578 5578 5578 5576 5575 5574 5573 5574 5575 5575 5577 5579 5580 5582 5583 5584 5585 5585 5586 5587 5588 5588 5587 5587 5588 5588 5587 5587 5586 5585 5584 5583 5581 5577 5573 5568 5562
5527 5529 5526 5521 5519 5516 5513 5539 5567 5567 5570 5571 5570 5572 5571 5570 5567 5565 5564 5564 5565 5565 5567 5568 5569 5570 5571 5572 5573 5573 5573 5574 5574 5574 5574 5574 5574 5573 5573 5572 5572 5570 5569 5567 5565 5561 5556 5551 5546